Skip Page Navigation
NASA JPL Caltech
NASA Logo - Jet Propulsion Laboratory + View the NASA Portal
+ Center for Near-Earth Object Studies
JPL Home Earth Solar System Stars & Galaxies Technology
JPL Solar System Dynamics
BODIES ORBITS EPHEMERIDES TOOLS PHYSICAL DATA DISCOVERY FAQ SITE MAP
JPL Small-Body Database Browser
Search: [ help ]  
136212 (2003 WA35)
Classification: Main-belt Asteroid          SPK-ID: 2136212
Ephemeris | Orbit Diagram | Orbital Elements | Mission Design | Physical Parameters | Discovery Circumstances ]

[ show orbit diagram ]
Orbital Elements at Epoch 2459000.5 (2020-May-31.0) TDB
Reference: JPL 17 (heliocentric ecliptic J2000)
 Element Value Uncertainty (1-sigma)   Units 
e .1189394374595557 6.1372e-08  
a 2.285828739841768 1.536e-08 au
q 2.013953555396103 1.4003e-07 au
i 3.279534851159864 5.4234e-06 deg
node 270.072713003693 0.00012753 deg
peri 116.7209867635806 0.00013036 deg
M 308.5413384043313 3.1441e-05 deg
tp 2459180.934651720114
(2020-Nov-27.43465172)
0.00011133 TDB
period 1262.30400490456
3.46
1.2724e-05
3.484e-08
d
yr
n .2851927892181715 2.8747e-09 deg/d
Q 2.557703924287433 1.7187e-08 au
  Orbit Determination Parameters
   # obs. used (total)      407  
   data-arc span      7676 days (21.02 yr)  
   first obs. used      1998-04-28  
   last obs. used      2019-05-04  
   planetary ephem.      DE431  
   SB-pert. ephem.      SB431-N16  
   condition code      0  
   norm. resid. RMS      .6183  
   source      ORB  
   producer      Otto Matic  
   solution date      2019-May-30 07:12:51  

Additional Information
 Earth MOID = 1.02092 au 
 Jupiter MOID = 2.86406 au 
 T_jup = 3.590 
[ show covariance matrix ]

Ephemeris | Orbit Diagram | Orbital Elements | Mission Design | Physical Parameters | Discovery Circumstances ]

Physical Parameter Table
Parameter Symbol Value Units Sigma Reference Notes
absolute magnitude H 16.3   n/a MPO432824  

136212 (2003 WA35)          Discovered 2003-Nov-19 by Spacewatch at Kitt Peak
Reference: 20060907/Numbers.arcLast Updated: 2006-09-10
Ephemeris | Orbit Diagram | Orbital Elements | Mission Design | Physical Parameters | Discovery Circumstances ]
ABOUT SSD CREDITS/AWARDS PRIVACY/COPYRIGHT GLOSSARY LINKS
FirstGov 2020-Jul-07 11:59 UT
(server date/time)  
NASA Home Page
Site Manager:   Ryan S. Park
Webmaster  Alan B. Chamberlin